Wetterdaten: aktuell Mittwoch, 21.11.2018 07:30
Datum Zeit Temp. I. Temp. A. UV X Feuchte I. Feuchte A. Luftdruck Regen Wind Richtung Richtung UV Taupunkt Windchill Windben
21.11.2018 07:30 20,2 C 0,2 C 0,0 UV-I 42 % 87 % 1017,6 hPa 0,0 l/m 2,3 km/h O-NO 67 0,0 UV-I -1,7 C 0,2 C 0,0 km/h
21.11.2018 07:25 20,2 C 0,2 C 0,0 UV-I 42 % 87 % 1017,6 hPa 0,0 l/m 2,6 km/h O-SO 112 0,0 UV-I -1,7 C 0,2 C 2,6 km/h
21.11.2018 07:20 20,2 C 0,2 C 0,0 UV-I 42 % 87 % 1017,3 hPa 0,0 l/m 2,6 km/h NO 45 0,0 UV-I -1,7 C 0,2 C 0,0 km/h
21.11.2018 07:15 20,2 C 0,2 C 0,0 UV-I 42 % 87 % 1017,3 hPa 0,0 l/m 2,7 km/h O-SO 112 0,0 UV-I -1,7 C 0,2 C 2,6 km/h
21.11.2018 07:10 20,2 C 0,2 C 0,0 UV-I 42 % 87 % 1017,3 hPa 0,0 l/m 2,4 km/h SO 135 0,0 UV-I -1,7 C 0,2 C 3,7 km/h
21.11.2018 07:05 20,2 C 0,2 C 0,0 UV-I 42 % 87 % 1017,3 hPa 0,0 l/m 2,3 km/h O-NO 67 0,0 UV-I -1,7 C 0,2 C 1,8 km/h
21.11.2018 07:00 20,2 C 0,2 C 0,0 UV-I 42 % 87 % 1016,9 hPa 0,0 l/m 2,6 km/h O 90 0,0 UV-I -1,7 C 0,2 C 4,7 km/h
21.11.2018 06:55 20,2 C 0,2 C 0,0 UV-I 42 % 87 % 1016,9 hPa 0,0 l/m 2,4 km/h O-NO 67 0,0 UV-I -1,7 C 0,2 C 3,5 km/h
21.11.2018 06:50 20,2 C 0,2 C 0,0 UV-I 42 % 87 % 1016,9 hPa 0,0 l/m 2,6 km/h O-NO 67 0,0 UV-I -1,7 C 0,2 C 2,1 km/h
21.11.2018 06:45 20,2 C 0,3 C 0,0 UV-I 42 % 87 % 1016,9 hPa 0,0 l/m 2,3 km/h O-NO 67 0,0 UV-I -1,6 C 0,3 C 4,7 km/h
21.11.2018 06:40 20,2 C 0,3 C 0,0 UV-I 42 % 87 % 1017,0 hPa 0,0 l/m 1,4 km/h O 90 0,0 UV-I -1,6 C 0,3 C 3,2 km/h
21.11.2018 06:35 20,2 C 0,3 C 0,0 UV-I 42 % 87 % 1017,0 hPa 0,0 l/m 1,4 km/h SO 135 0,0 UV-I -1,6 C 0,3 C 5,0 km/h
21.11.2018 06:30 20,2 C 0,3 C 0,0 UV-I 42 % 87 % 1017,0 hPa 0,0 l/m 1,6 km/h S 180 0,0 UV-I -1,6 C 0,3 C 0,0 km/h
21.11.2018 06:25 20,2 C 0,3 C 0,0 UV-I 42 % 87 % 1017,0 hPa 0,0 l/m 0,8 km/h S-SO 157 0,0 UV-I -1,6 C 0,3 C 2,7 km/h
21.11.2018 06:20 20,2 C 0,3 C 0,0 UV-I 42 % 87 % 1017,0 hPa 0,0 l/m 0,8 km/h SO 135 0,0 UV-I -1,6 C 0,3 C 3,1 km/h
21.11.2018 06:15 20,2 C 0,3 C 0,0 UV-I 42 % 87 % 1017,0 hPa 0,0 l/m 0,8 km/h SO 135 0,0 UV-I -1,6 C 0,3 C 2,3 km/h
21.11.2018 06:10 20,2 C 0,3 C 0,0 UV-I 42 % 87 % 1017,0 hPa 0,0 l/m 0,5 km/h S 180 0,0 UV-I -1,6 C 0,3 C 0,0 km/h
21.11.2018 06:05 20,2 C 0,3 C 0,0 UV-I 42 % 87 % 1017,0 hPa 0,0 l/m 0,5 km/h S 180 0,0 UV-I -1,6 C 0,3 C 0,0 km/h
21.11.2018 06:00 20,2 C 0,3 C 0,0 UV-I 42 % 87 % 1016,6 hPa 0,0 l/m 1,0 km/h S 180 0,0 UV-I -1,6 C 0,3 C 0,0 km/h
21.11.2018 05:55 20,2 C 0,3 C 0,0 UV-I 42 % 87 % 1016,6 hPa 0,0 l/m 1,8 km/h O-NO 67 0,0 UV-I -1,6 C 0,3 C 0,0 km/h
21.11.2018 05:50 20,2 C 0,3 C 0,0 UV-I 42 % 87 % 1016,6 hPa 0,0 l/m 1,9 km/h O 90 0,0 UV-I -1,6 C 0,3 C 3,4 km/h
21.11.2018 05:45 20,2 C 0,3 C 0,0 UV-I 42 % 87 % 1016,6 hPa 0,0 l/m 1,6 km/h S 180 0,0 UV-I -1,6 C 0,3 C 0,0 km/h
21.11.2018 05:40 20,2 C 0,3 C 0,0 UV-I 42 % 87 % 1016,6 hPa 0,0 l/m 2,3 km/h SO 135 0,0 UV-I -1,6 C 0,3 C 2,6 km/h
21.11.2018 05:35 20,2 C 0,3 C 0,0 UV-I 42 % 87 % 1016,6 hPa 0,0 l/m 2,4 km/h S-SO 157 0,0 UV-I -1,6 C 0,3 C 4,0 km/h
21.11.2018 05:30 20,2 C 0,4 C 0,0 UV-I 42 % 87 % 1016,6 hPa 0,0 l/m 2,3 km/h O-SO 112 0,0 UV-I -1,5 C 0,4 C 4,0 km/h
21.11.2018 05:25 20,2 C 0,4 C 0,0 UV-I 42 % 87 % 1016,6 hPa 0,0 l/m 1,9 km/h O-SO 112 0,0 UV-I -1,5 C 0,4 C 0,0 km/h
21.11.2018 05:20 20,2 C 0,4 C 0,0 UV-I 41 % 87 % 1016,2 hPa 0,0 l/m 2,3 km/h O-SO 112 0,0 UV-I -1,5 C 0,4 C 3,9 km/h
21.11.2018 05:15 20,2 C 0,4 C 0,0 UV-I 41 % 87 % 1016,2 hPa 0,0 l/m 2,1 km/h SO 135 0,0 UV-I -1,5 C 0,4 C 4,5 km/h
21.11.2018 05:10 20,2 C 0,4 C 0,0 UV-I 41 % 87 % 1016,2 hPa 0,0 l/m 1,1 km/h SO 135 0,0 UV-I -1,5 C 0,4 C 4,7 km/h
21.11.2018 05:05 20,2 C 0,4 C 0,0 UV-I 42 % 87 % 1016,2 hPa 0,0 l/m 0,3 km/h W-NW 292 0,0 UV-I -1,5 C 0,4 C 0,0 km/h
21.11.2018 05:00 20,2 C 0,4 C 0,0 UV-I 41 % 87 % 1016,1 hPa 0,0 l/m 0,5 km/h SW 225 0,0 UV-I -1,5 C 0,4 C 0,0 km/h
21.11.2018 04:55 20,2 C 0,4 C 0,0 UV-I 41 % 87 % 1016,1 hPa 0,0 l/m 1,1 km/h SO 135 0,0 UV-I -1,5 C 0,4 C 2,1 km/h
21.11.2018 04:50 20,2 C 0,4 C 0,0 UV-I 41 % 87 % 1016,1 hPa 0,0 l/m 0,8 km/h O-NO 67 0,0 UV-I -1,5 C 0,4 C 1,8 km/h
21.11.2018 04:45 20,2 C 0,4 C 0,0 UV-I 41 % 87 % 1016,1 hPa 0,0 l/m 0,8 km/h O-SO 112 0,0 UV-I -1,5 C 0,4 C 3,4 km/h
21.11.2018 04:40 20,2 C 0,4 C 0,0 UV-I 41 % 87 % 1016,0 hPa 0,0 l/m 1,6 km/h S-SO 157 0,0 UV-I -1,5 C 0,4 C 0,0 km/h
21.11.2018 04:35 20,2 C 0,4 C 0,0 UV-I 41 % 87 % 1016,0 hPa 0,0 l/m 1,8 km/h O-SO 112 0,0 UV-I -1,5 C 0,4 C 0,0 km/h
21.11.2018 04:30 20,2 C 0,4 C 0,0 UV-I 41 % 87 % 1016,0 hPa 0,0 l/m 0,8 km/h O-NO 67 0,0 UV-I -1,5 C 0,4 C 4,0 km/h
21.11.2018 04:25 20,2 C 0,4 C 0,0 UV-I 41 % 87 % 1016,0 hPa 0,0 l/m 1,0 km/h N-NW 337 0,0 UV-I -1,5 C 0,4 C 0,0 km/h
21.11.2018 04:20 20,2 C 0,4 C 0,0 UV-I 41 % 87 % 1015,8 hPa 0,0 l/m 1,9 km/h S 180 0,0 UV-I -1,5 C 0,4 C 0,0 km/h
21.11.2018 04:15 20,2 C 0,4 C 0,0 UV-I 41 % 87 % 1015,8 hPa 0,0 l/m 2,4 km/h SO 135 0,0 UV-I -1,5 C 0,4 C 5,0 km/h
21.11.2018 04:10 20,2 C 0,4 C 0,0 UV-I 41 % 87 % 1015,8 hPa 0,0 l/m 3,1 km/h O-SO 112 0,0 UV-I -1,5 C 0,4 C 7,4 km/h
_ Min-Zeit 08:35 07:30 07:30 05:20 11:15 14:00 - 05:05 - - 07:30 08:45 13:10 07:30
Minimum _ 19,5 C 0,2 C 0,0 UV-I 41 % 80 % 1012,2 hPa - 0,3 km/h - - 0,0 UV-I -2,7 C -2,7 C 0,0 km/h
_ Max-Zeit 23:00 11:15 07:30 10:15 07:30 07:30 07:30 09:34 - - 07:30 05:30 05:30 09:39
Maximum _ 21,2 C 0,6 C 0,0 UV-I 44 % 87 % 1017,6 hPa 0,0 l/m 9,2 km/h
O-NO
- - 0,0 UV-I -1,5 C 0,4 C 21,4 km/h
O-NO
Durchschnitt _ 20,4 C 0,3 C 0,0 UV-I 42 % 85 % 1014,4 hPa #0,0 l/m 4,7 km/h O-NO - 0,0 UV-I -1,9 C -0,8 C 6,4 km/h